TimeEST,TemperatureF,Dew PointF,Humidity,Sea Level PressureIn,VisibilityMPH,Wind Direction,Wind SpeedMPH,Gust SpeedMPH,PrecipitationIn,Events,Conditions,WindDirDegrees,DateUTC
12:09 AM,39.2,35.6,87,29.90,7.0,NW,10.4,-,0.01,Rain,Light Rain,320,2011-11-23 05:09:00
12:20 AM,39.2,35.6,87,29.90,8.0,NNW,11.5,-,0.01,Rain,Light Rain,330,2011-11-23 05:20:00
1:53 AM,37.9,35.1,89,29.96,7.0,NNW,10.4,-,0.00,,Overcast,330,2011-11-23 06:53:00
3:53 AM,36.0,32.0,86,30.02,10.0,NW,6.9,-,N/A,,Clear,320,2011-11-23 08:53:00
4:53 AM,35.1,30.9,85,30.05,10.0,NNW,5.8,-,N/A,,Clear,330,2011-11-23 09:53:00
7:53 AM,30.9,28.9,92,30.14,9.0,Calm,Calm,-,N/A,,Clear,0,2011-11-23 12:53:00
8:32 AM,30.2,30.2,100,30.13,1.8,Calm,Calm,-,N/A,,Clear,0,2011-11-23 13:32:00
8:40 AM,32.0,30.2,93,30.14,3.0,Calm,Calm,-,N/A,,Clear,0,2011-11-23 13:40:00
8:53 AM,33.1,32.0,96,30.17,7.0,Calm,Calm,-,N/A,,Clear,0,2011-11-23 13:53:00
9:53 AM,39.9,35.1,83,30.20,10.0,NW,4.6,-,N/A,,Clear,320,2011-11-23 14:53:00
10:53 AM,45.0,37.9,76,30.21,10.0,NW,5.8,-,N/A,,Clear,310,2011-11-23 15:53:00
11:53 AM,46.9,39.0,74,30.21,10.0,WNW,9.2,-,N/A,,Clear,290,2011-11-23 16:53:00
12:53 PM,48.9,39.0,69,30.20,10.0,NW,5.8,-,N/A,,Clear,310,2011-11-23 17:53:00
1:53 PM,50.0,39.0,66,30.20,10.0,WSW,5.8,-,N/A,,Clear,240,2011-11-23 18:53:00
2:53 PM,50.0,39.0,66,30.21,10.0,WSW,9.2,-,N/A,,Clear,240,2011-11-23 19:53:00
3:53 PM,48.9,39.9,71,30.19,10.0,WSW,8.1,-,N/A,,Clear,250,2011-11-23 20:53:00
4:53 PM,46.9,39.9,77,30.22,10.0,SW,9.2,-,N/A,,Clear,230,2011-11-23 21:53:00
5:16 PM,44.6,39.2,81,30.20,8.0,WSW,9.2,-,N/A,,Mostly Cloudy,240,2011-11-23 22:16:00
5:53 PM,44.1,39.0,82,30.24,8.0,West,13.8,-,N/A,,Overcast,260,2011-11-23 22:53:00
6:06 PM,42.8,39.2,87,30.21,8.0,WSW,8.1,-,N/A,,Overcast,250,2011-11-23 23:06:00
6:49 PM,39.2,37.4,93,30.21,6.0,SW,5.8,-,N/A,,Scattered Clouds,230,2011-11-23 23:49:00
6:53 PM,39.9,37.0,89,30.24,6.0,SW,5.8,-,N/A,,Partly Cloudy,220,2011-11-23 23:53:00
7:41 PM,39.2,35.6,87,30.22,2.5,SSW,3.5,-,N/A,,Clear,210,2011-11-24 00:41:00
7:50 PM,37.4,35.6,93,30.22,4.0,South,4.6,-,N/A,,Clear,180,2011-11-24 00:50:00
7:53 PM,37.9,35.1,89,30.24,4.0,South,5.8,-,N/A,,Clear,180,2011-11-24 00:53:00
8:45 PM,35.6,33.8,93,30.23,1.8,Calm,Calm,-,N/A,,Clear,0,2011-11-24 01:45:00
8:53 PM,36.0,34.0,93,30.26,1.2,Calm,Calm,-,N/A,,Clear,0,2011-11-24 01:53:00
9:02 PM,35.6,35.6,100,30.23,2.0,SW,3.5,-,N/A,,Clear,230,2011-11-24 02:02:00
9:36 PM,35.6,33.8,93,30.23,3.0,SSW,5.8,-,N/A,,Clear,210,2011-11-24 02:36:00
10:53 PM,36.0,33.1,89,30.27,3.0,SW,5.8,-,N/A,,Clear,220,2011-11-24 03:53:00
11:53 PM,35.1,33.1,92,30.27,3.0,SSW,5.8,-,N/A,,Clear,210,2011-11-24 04:53:00